• Em Portugal
  • Lista de países
  • Para 7 dias
  • Temperatura da água
  • Mapas de satélite
  • Mapa do tempo
  • Widgets de tempo
  • user-avatar
    Iniciar Sessão

    Previsão horária em Lubango

    Hoje, 22 Abril, Domingo

    Tempo Temperatura Precipitação Vento Pressão Humidade
    00:00 +15°C° 0 mm 2 m/s 609 mmHg 68%
    01:00 +15°C° 0 mm 2 m/s 609 mmHg 68%
    02:00 +15°C° 0 mm 2 m/s 608 mmHg 68%
    03:00 +14°C° 0 mm 2 m/s 608 mmHg 67%
    04:00 +14°C° 0 mm 2 m/s 608 mmHg 67%
    05:00 +14°C° 0 mm 2 m/s 608 mmHg 67%
    06:00 +15°C° 0 mm 2 m/s 609 mmHg 68%
    07:00 +16°C° 0 mm 2 m/s 609 mmHg 67%
    08:00 +18°C° 0 mm 2 m/s 610 mmHg 59%
    09:00 +21°C° 0 mm 3 m/s 611 mmHg 51%
    10:00 +24°C° 0 mm 3 m/s 613 mmHg 42%
    11:00 +25°C° 0 mm 4 m/s 612 mmHg 41%
    12:00 +26°C° 0 mm 4 m/s 612 mmHg 39%
    13:00 +27°C° 0 mm 4 m/s 612 mmHg 37%
    14:00 +26°C° 0 mm 3 m/s 612 mmHg 39%
    15:00 +26°C° 0 mm 3 m/s 611 mmHg 41%
    16:00 +26°C° 0 mm 3 m/s 611 mmHg 42%
    17:00 +24°C° 0 mm 2 m/s 610 mmHg 49%
    18:00 +20°C° 0 mm 2 m/s 609 mmHg 56%
    19:00 +18°C° 0 mm 2 m/s 609 mmHg 62%
    20:00 +17°C° 0 mm 2 m/s 609 mmHg 62%
    21:00 +17°C° 0 mm 2 m/s 609 mmHg 62%
    22:00 +16°C° 0 mm 1 m/s 609 mmHg 63%
    23:00 +16°C° 0 mm 2 m/s 609 mmHg 62%

    Amanhã, 23 Abril, Segunda-feira

    Tempo Temperatura Precipitação Vento Pressão Humidade
    00:00 +16°C° 0 mm 2 m/s 609 mmHg 62%
    01:00 +16°C° 0 mm 2 m/s 609 mmHg 61%
    02:00 +16°C° 0 mm 2 m/s 609 mmHg 60%
    03:00 +15°C° 0 mm 2 m/s 609 mmHg 59%
    04:00 +15°C° 0 mm 2 m/s 609 mmHg 59%
    05:00 +16°C° 0 mm 2 m/s 609 mmHg 59%
    06:00 +16°C° 0 mm 2 m/s 609 mmHg 60%
    07:00 +16°C° 0 mm 2 m/s 610 mmHg 61%
    08:00 +19°C° 0 mm 2 m/s 611 mmHg 54%
    09:00 +21°C° 0 mm 2 m/s 612 mmHg 47%
    10:00 +25°C° 0 mm 2 m/s 613 mmHg 40%
    11:00 +26°C° 0 mm 2 m/s 613 mmHg 38%
    12:00 +27°C° 0 mm 2 m/s 613 mmHg 36%
    13:00 +27°C° 0 mm 3 m/s 613 mmHg 34%
    14:00 +27°C° 0 mm 2 m/s 612 mmHg 35%
    15:00 +27°C° 0 mm 2 m/s 612 mmHg 37%
    16:00 +27°C° 0 mm 2 m/s 611 mmHg 39%
    17:00 +24°C° 0 mm 2 m/s 611 mmHg 45%
    18:00 +21°C° 0 mm 2 m/s 610 mmHg 52%
    19:00 +19°C° 0 mm 2 m/s 610 mmHg 58%
    20:00 +19°C° 0 mm 1 m/s 610 mmHg 60%
    21:00 +18°C° 0 mm 1 m/s 610 mmHg 61%
    22:00 +18°C° 0 mm 1 m/s 610 mmHg 63%
    23:00 +16°C° 0 mm 1 m/s 610 mmHg 62%

    Depois de amanhã, 24 Abril, Terça-feira

    Tempo Temperatura Precipitação Vento Pressão Humidade
    00:00 +16°C° 0 mm 1 m/s 610 mmHg 62%
    01:00 +16°C° 0 mm 1 m/s 609 mmHg 61%
    02:00 +15°C° 0 mm 1 m/s 609 mmHg 61%
    03:00 +15°C° 0 mm 1 m/s 609 mmHg 60%
    04:00 +15°C° 0 mm 1 m/s 609 mmHg 60%
    05:00 +15°C° 0 mm 1 m/s 609 mmHg 61%
    06:00 +15°C° 0 mm 1 m/s 609 mmHg 61%
    07:00 +16°C° 0 mm 1 m/s 610 mmHg 62%
    08:00 +19°C° 0 mm 2 m/s 611 mmHg 54%
    09:00 +21°C° 0 mm 2 m/s 612 mmHg 46%
    10:00 +25°C° 0 mm 2 m/s 614 mmHg 38%
    11:00 +26°C° 0 mm 3 m/s 613 mmHg 36%
    12:00 +27°C° 0 mm 3 m/s 613 mmHg 33%
    13:00 +27°C° 0 mm 3 m/s 613 mmHg 31%
    14:00 +27°C° 0 mm 3 m/s 612 mmHg 33%
    15:00 +26°C° 0 mm 2 m/s 612 mmHg 35%
    16:00 +26°C° 0 mm 2 m/s 611 mmHg 37%
    17:00 +23°C° 0 mm 2 m/s 611 mmHg 43%
    18:00 +20°C° 0 mm 2 m/s 610 mmHg 50%
    19:00 +18°C° 0 mm 1 m/s 610 mmHg 56%
    20:00 +18°C° 0 mm 1 m/s 610 mmHg 57%
    21:00 +16°C° 0 mm 1 m/s 610 mmHg 58%
    22:00 +16°C° 0 mm 1 m/s 610 mmHg 58%
    23:00 +15°C° 0 mm 1 m/s 610 mmHg 58%

    25 Abril, Quarta-feira

    Tempo Temperatura Precipitação Vento Pressão Humidade
    00:00 +15°C° 0 mm 1 m/s 610 mmHg 57%
    01:00 +15°C° 0 mm 1 m/s 609 mmHg 57%
    02:00 +15°C° 0 mm 1 m/s 609 mmHg 56%
    03:00 +14°C° 0 mm 1 m/s 609 mmHg 56%
    04:00 +14°C° 0 mm 1 m/s 609 mmHg 56%
    05:00 +15°C° 0 mm 1 m/s 609 mmHg 57%
    06:00 +15°C° 0 mm 1 m/s 609 mmHg 58%
    07:00 +15°C° 0 mm 1 m/s 610 mmHg 58%
    08:00 +18°C° 0 mm 2 m/s 611 mmHg 51%
    09:00 +21°C° 0 mm 2 m/s 612 mmHg 44%
    10:00 +25°C° 0 mm 2 m/s 614 mmHg 37%
    11:00 +26°C° 0 mm 2 m/s 613 mmHg 35%
    12:00 +26°C° 0 mm 2 m/s 613 mmHg 34%
    13:00 +27°C° 0 mm 3 m/s 612 mmHg 33%
    14:00 +27°C° 0 mm 2 m/s 612 mmHg 35%
    15:00 +26°C° 0 mm 2 m/s 612 mmHg 37%
    16:00 +26°C° 0 mm 2 m/s 611 mmHg 39%
    17:00 +24°C° 0 mm 2 m/s 611 mmHg 45%
    18:00 +20°C° 0 mm 2 m/s 610 mmHg 52%
    19:00 +19°C° 0 mm 1 m/s 609 mmHg 58%
    20:00 +18°C° 0 mm 1 m/s 609 mmHg 60%
    21:00 +18°C° 0 mm 1 m/s 610 mmHg 62%
    22:00 +16°C° 0 mm 1 m/s 610 mmHg 64%
    23:00 +16°C° 0 mm 1 m/s 609 mmHg 64%

    26 Abril, Quinta-feira

    Tempo Temperatura Precipitação Vento Pressão Humidade
    00:00 +15°C° 0 mm 1 m/s 609 mmHg 63%
    01:00 +15°C° 0 mm 1 m/s 609 mmHg 63%
    02:00 +15°C° 0 mm 1 m/s 608 mmHg 63%
    03:00 +15°C° 0 mm 1 m/s 608 mmHg 63%
    04:00 +14°C° 0 mm 1 m/s 608 mmHg 64%
    05:00 +15°C° 0 mm 2 m/s 608 mmHg 64%
    06:00 +15°C° 0 mm 2 m/s 609 mmHg 64%
    07:00 +15°C° 0 mm 2 m/s 609 mmHg 64%
    08:00 +18°C° 0 mm 2 m/s 610 mmHg 56%
    09:00 +21°C° 0 mm 2 m/s 612 mmHg 48%
    10:00 +25°C° 0 mm 3 m/s 613 mmHg 40%
    11:00 +25°C° 0 mm 3 m/s 612 mmHg 38%
    12:00 +26°C° 0 mm 2 m/s 612 mmHg 36%
    13:00 +27°C° 0 mm 2 m/s 612 mmHg 34%
    14:00 +26°C° 0 mm 2 m/s 611 mmHg 36%
    15:00 +26°C° 0 mm 2 m/s 611 mmHg 38%
    16:00 +25°C° 0 mm 2 m/s 610 mmHg 40%
    17:00 +23°C° 0 mm 1 m/s 610 mmHg 46%
    18:00 +21°C° 0 mm 1 m/s 609 mmHg 53%
    19:00 +19°C° 0 mm 1 m/s 609 mmHg 59%
    20:00 +18°C° 0 mm 1 m/s 609 mmHg 60%
    21:00 +16°C° 0 mm 1 m/s 609 mmHg 61%
    22:00 +16°C° 0 mm 1 m/s 609 mmHg 62%
    23:00 +15°C° 0 mm 1 m/s 609 mmHg 61%

    27 Abril, Sexta-feira

    Tempo Temperatura Precipitação Vento Pressão Humidade
    00:00 +15°C° 0 mm 1 m/s 609 mmHg 61%
    01:00 +14°C° 0 mm 1 m/s 608 mmHg 60%
    02:00 +14°C° 0 mm 1 m/s 608 mmHg 59%
    03:00 +14°C° 0 mm 1 m/s 608 mmHg 58%
    04:00 +14°C° 0 mm 1 m/s 608 mmHg 57%
    05:00 +14°C° 0 mm 1 m/s 608 mmHg 58%
    06:00 +14°C° 0 mm 1 m/s 608 mmHg 58%
    07:00 +15°C° 0 mm 1 m/s 609 mmHg 59%
    08:00 +17°C° 0 mm 2 m/s 610 mmHg 52%
    09:00 +20°C° 0 mm 2 m/s 611 mmHg 45%
    10:00 +24°C° 0 mm 2 m/s 613 mmHg 38%
    11:00 +25°C° 0 mm 2 m/s 612 mmHg 36%
    12:00 +26°C° 0 mm 2 m/s 612 mmHg 34%
    13:00 +27°C° 0 mm 2 m/s 611 mmHg 32%
    14:00 +26°C° 0 mm 2 m/s 611 mmHg 35%
    15:00 +26°C° 0 mm 2 m/s 610 mmHg 37%
    16:00 +25°C° 0 mm 1 m/s 610 mmHg 39%
    17:00 +23°C° 0 mm 1 m/s 610 mmHg 46%
    18:00 +21°C° 0 mm 1 m/s 609 mmHg 52%
    19:00 +19°C° 0 mm 1 m/s 609 mmHg 58%
    20:00 +18°C° 0 mm 1 m/s 609 mmHg 60%
    21:00 +16°C° 0 mm 1 m/s 609 mmHg 62%
    22:00 +16°C° 0 mm 1 m/s 609 mmHg 63%
    23:00 +15°C° 0 mm 1 m/s 609 mmHg 64%
    Mostrar mais